Regional Weather Roundup
Issued by NWS

Home | Current Version | Previous Version | Text Only | Print | Product List | Glossary On
Versions: 1 2 3 4 5 6 7 8 9 10 11 12 13 14 15 16 17 18 19 20 21 22 23 24 25 26 27 28 29 30 31 32 33 34 35 36 37 38 39 40 41 42 43 44 45 46 47 48 49 50
000
ASUS43 KDTX 300510
RWRMI
MICHIGAN HOURLY REGIONAL WEATHER ROUNDUP
NATIONAL WEATHER SERVICE DETROIT/PONTIAC MI
100 AM EDT MON MAY 30 2016

NOTE: "FAIR" INDICATES FEW OR NO CLOUDS BELOW 12,000 FEET WITH NO
SIGNIFICANT WEATHER AND/OR OBSTRUCTION TO VISIBILITY.

MIZ047>049-052>055-059>063-066>070-074>076-081>083-300600-
SOUTHEAST LOWER MICHIGAN

CITY           SKY/WX    TMP DP  RH WIND       PRES   REMARKS
ADRIAN         CLEAR     62  56  80 CALM      30.01S
ALMA           CLEAR     61  58  88 SW5       29.96R
ANN ARBOR      CLEAR     60  56  86 W3        30.00R
BAD AXE        CLEAR     66  57  72 SW5       29.93S
CARO           CLEAR     60  56  85 SW5       29.94S
DETROIT CITY   PTCLDY    71  55  56 W5        29.97F
DETROIT        PTCLDY    68  56  65 W6        29.99S
FLINT          CLEAR     68  56  65 SW7       29.97S
GROSSE ILE     CLEAR     70  57  64 CALM      29.97S
HILLSDALE      CLEAR     61  55  78 CALM      30.02R
HOWELL         CLEAR     64  55  74 SW3       29.99S

CITY           SKY/WX    TMP DP  RH WIND       PRES   REMARKS
JACKSON        CLEAR     61  57  87 SW3       30.00S
LAMBERTVILLE   CLEAR     64  57  78 CALM      30.00S
LANSING        CLEAR     64  57  78 SW7       29.98R
LAPEER         FAIR      64  56  75 S3        29.97F
MASON          CLEAR     64  56  76 E6        29.99S
MONROE         CLEAR     62  58  85 S8        29.99S
MT. CLEMENS    CLEAR     69  57  64 W7        29.95F
PONTIAC        CLEAR     66  56  70 CALM      29.98F
PORT HOPE        N/A     68  59  73 VRB5      29.90S
PORT HURON     CLEAR     59  59 100 CALM      29.96F
TRI CITIES     CLEAR     67  58  72 SW7       29.94F
MIDLAND        FAIR      64  57  78 SW5       29.93S
TROY           CLEAR     71  55  56 W5        29.99F
SAGINAW HB     CLEAR     66  55  68 SW8       29.94S
$$
MIZ043>046-050>051-056>058-064>065-071>073-077>080-300600-
SOUTHWEST LOWER MICHIGAN

CITY           SKY/WX    TMP DP  RH WIND       PRES   REMARKS
BATTLE CREEK   CLEAR     63  57  81 SW7       30.00R
BENTON HARBOR  CLEAR     61  56  83 CALM      29.99S
BIG RAPIDS     PTCLDY    64  60  89 W3        29.95S
COLDWATER      CLEAR     61  55  82 CALM      30.01S
FREMONT        MOCLDY    59  59 100 CALM      29.96S
HOLLAND        CLEAR     63  55  75 CALM      29.98S
GRAND RAPIDS   CLEAR     65  57  75 W6        29.97S
IONIA          FAIR      63  56  77 SW6       29.96S
KALAMAZOO      CLEAR     65  56  72 SW6       30.00R
LUDINGTON      CLEAR     56  56  98 CALM      29.95S
MARSHALL       CLEAR     63  57  80 CALM      29.99S
MOUNT PLEASANT CLEAR     64  58  79 SW3       29.94S
MUSKEGON       CLEAR     58  52  80 SW3       29.97S
SOUTH HAVEN    CLEAR     67  56  67 W5        29.99S
$$
MIZ016>042-300600-
NORTHERN LOWER MICHIGAN

CITY           SKY/WX    TMP DP  RH WIND       PRES   REMARKS
ALPENA         PTCLDY    66  57  72 SW7       29.87S
BEAVER ISLAND  MOCLDY    55  53  94 SW7       29.89S
BELLAIRE       MOCLDY    65  58  75 SW3       29.91S
CADILLAC       CLEAR     61  58  88 W5        29.94S
CHARLEVOIX     CLOUDY    62  57  84 W13G18    29.93R
FRANKFORT      MOCLDY    58  56  94 CALM      29.95R
GAYLORD        PTCLDY    65  58  78 W7        29.91R
GRAYLING       PTCLDY    64  58  80 W5        29.94R
HARBOR SPRINGS MOCLDY    61  56  84 W7        29.89R
HOUGHTON LAKE  PTCLDY    65  59  81 W9        29.93S
OSCODA         CLEAR     68  57  68 W9        29.89R
PELLSTON       CLOUDY    61  55  81 W7        29.89R
ROGERS CITY    CLEAR     65  57  74 W10G17    29.87S
TRAVERSE CITY  CLOUDY    67  58  72 W6        29.91R
$$
MIZ007>008-015-300600-
EASTERN UPPER MICHIGAN

CITY           SKY/WX    TMP DP  RH WIND       PRES   REMARKS
KINROSS          N/A     57  57 100 S6        29.86S
MACKINAC ISLAN CLOUDY    55  55 100 W9        29.88S
NEWBERRY       CLOUDY    60  59  97 W7        29.86S
S. S. MARIE    CLOUDY    60  57  89 W5        29.84S
MUNISING         N/A     61  56  83 SW6       29.87R
$$
MIZ004>006-011>014-085-300600-
CENTRAL UPPER MICHIGAN

CITY           SKY/WX    TMP DP  RH WIND       PRES   REMARKS
MANISTIQUE     PTCLDY    60  59  97 W5        29.88R
ESCANABA       CLEAR     57  55  94 W3        29.90R
MENOMINEE      PTCLDY    59  57  94 CALM      29.94R
SAWYER-GWINN   CLEAR     56  54  91 SW6       29.89S
$$
MIZ001>003-009>011-084-300600-
WESTERN UPPER MICHIGAN

CITY           SKY/WX    TMP DP  RH WIND       PRES   REMARKS
IRON MOUNTAIN  CLEAR     60  55  83 W6        29.90S
HOUGHTON       CLEAR     56  50  80 W14       29.86S
COPPER HARBOR    N/A     60  54  80 N13G24    29.83R
IRONWOOD       CLEAR     52  52 100 SW3       29.91S
$$

ABBREVIATIONS USED IN REMARKS
   TC - TEMPERATURE IN CELSIUS
  WCI - WIND CHILL INDEX
   HX - HEAT INDEX
  VSB - VISIBILITY





USA.gov is the U.S. government's official web portal to all federal, state and local government web resources and services.